Other Surface Observations
Issued by NWS

Home | Current Version | Previous Version | Text Only | Print | Product List | Glossary On
Versions: 1 2 3 4 5 6 7 8 9 10 11 12 13 14 15 16 17 18 19 20 21 22 23 24 25 26 27 28 29 30 31 32 33 34 35 36 37 38 39 40 41 42 43 44 45 46 47 48 49 50
000
SXUS52 KTAE 271718
OSOTAE
OSOTAE
North Florida/South Alabama/Southwest Georgia Weather Roundup
National Weather Service Tallahassee Florida
1200 PM EST TUE JAN 27 2015

Note: "fair" indicates few or no clouds below 12,000 feet with no
significant weather and/or obstructions to visibility.

!FLZ017-115-028-034-025-271800
...North Florida...

CITY           SKY/WX    TMP DP  RH WIND       PRES   REMARKS
TALLAHASSEE    SUNNY     60  36  40 W13       30.00F
APALACHICOLA   SUNNY     68  41  37 NW15      30.02F
PERRY          SUNNY     61  37  39 NW9       29.99F
CROSS CITY       N/A     64  38  38 W14G28    30.00F
JACKSONVILLE   MOSUNNY   56  34  43 W16       29.94F
$$

!FLZ112-006-005-002-011-271800
...Florida Panhandle...

CITY           SKY/WX    TMP DP  RH WIND       PRES   REMARKS
MARIANNA       SUNNY     57  39  51 W9        30.01F
BONIFAY        FAIR      57  39  51 W6        30.04F
PANAMA CITY NW FAIR      60  38  43 W13G20    30.03F
TYNDALL AFB    SUNNY     59  40  47 NW14      30.04F
TYND DRONE APT FAIR      59  40  48 W10       30.03F
DE FUNIAK SPR  FAIR      58  37  45 NW14G20   30.05S
EGLIN AFB      SUNNY     61  37  40 NW14      30.05F
DESTIN         SUNNY     61  39  44 NW7       30.05F
HURLBURT       SUNNY     61  34  36 N14G21    30.04F
CRESTVIEW      SUNNY     74  38  27 NW16G22   30.07F
PENSACOLA      SUNNY     61  37  41 N14       30.07F
$$

!ALZ063-066-271800
...South Alabama...

CITY           SKY/WX    TMP DP  RH WIND       PRES   REMARKS
DOTHAN         SUNNY     55  37  50 NW14      30.04F
OZARK CAIRNS   SUNNY     56  36  46 W12       30.02F
FT RUCKER HELI SUNNY     56  37  49 NW13      30.02S
RUCKER HELI 3  FAIR      55  37  50 NW9G22    30.05S
RUCKER HELI 2  FAIR      55  37  50 NW9       30.02S
FLORALA APT    SUNNY     59  37  44 VRB7      30.06F
ANDALUSIA      SUNNY     61  37  41 NW15G21   30.05S
TROY           SUNNY     57  35  43 NW14G20   30.04S
EUFALA         FAIR      57  34  41 NW10G17   29.99F
MOBILE         SUNNY     60  37  42 NW12      30.10F
$$

!GAZ120>161-271800
...Southwest and South Central Georgia...

CITY           SKY/WX    TMP DP  RH WIND       PRES   REMARKS
THOMASVILLE    FAIR      55  37  50 NW10G16   29.98F
BAINBRIDGE     SUNNY     59  43  55 W9        30.01S
MOODY AFB      SUNNY     56  36  47 W9        29.96F
VALDOSTA       SUNNY     57  37  47 VRB6      29.97F
MOULTRIE       SUNNY     54  39  58 NW10      29.98F
BLAKELY        SUNNY     55  39  54 NW8       30.01S
ALBANY         SUNNY     55  36  48 W9        30.00F
TIFTON         FAIR      52  34  50 NW12      29.96F
FITZGERALD     FAIR      54  34  46 NW10G16   29.98S
CORDELE        FAIR      54  35  49 N7        29.98S
AMERICUS       FAIR      52  36  54 NW9G17    29.98F
HOMERVILLE     FAIR      57  41  54 NW13      29.96F
$$

!GMZ750-755-770-775-271800
...Coastal and Buoy Obs...

STATION/POSITION TIME  TEMP    WIND        PRES    VSBY  WAVE
                       AIR SEA DIR/SP/G                  HT/PER
                 (UTC) (F)     (DEG/KT/KT) (MB)    (MI)  (FT/S)
KEATON BEACH     1700   55     270/  8/  8 1016.1F
CEDAR KEY        1700   59     290/  8/ 11 1016.7F
C TOWER          1700   59     290/ 21/ 24 1016.4F
APALACHICOLA BUO 1700   65 68  290/ 19/ 23 1017.0F         5/ 6
PANAMA CITY BUOY 1630   66 70  300/ 19/ 23 1018.1F         5/ 6
MOBILE BUOY      1601   60 70  340/ 17/ 21 1020.4R         5/ 7
ORANGE BCH AL BU 1700   56 61  300/ 10/ 12 1018.5F         4/ 5
$$



USA.gov is the U.S. government's official web portal to all federal, state and local government web resources and services.